Torna al catalogo

STARLINK-36481

AttivoComunicazioniVLEO
NORAD 67307·PAYLOAD·🇺🇸 United States

Lanciato Jan 4, 2026 da Cape Canaveral Space Force Station

Loading…

Prossimi Passaggi (prossime 24 ore)

TLE

AggiornatoSource: CelesTrak SupGP

Epoca: Sep 15, 2026, 03:15 UTC

1 67307C 26002C   26258.13590278  .00047347  00000+0  17146-2 0  2584
2 67307  43.0023 335.4786 0001613 262.6031   5.7456 15.27561150    15

Traccia STARLINK-36481 in tempo reale con AllMySat

Download on the App Store